Other Public Products
Issued by NWS Charleston, SC

Current Version | Previous Version | Text Only | Print | Product List | Glossary Off
Versions: 1 2 3 4 5 6 7 8 9 10 11 12 13 14 15 16 17 18 19 20 21 22 23 24 25 26 27 28 29 30 31 32 33 34 35 36 37 38 39 40 41 42 43 44 45 46 47 48 49 50
275 FPUS82 KCHS 191612 OPUCHS TEST...KCHS/KSAV Gateway Observations...TEST National Weather Service Charleston SC 1100 AM EST SUN FEB 19 2017 NOTE: "fair" indicates few or no clouds below 12,000 feet with no significant weather and/or obstructions to visibility. SCZ050-WAZ558-NCZ071-TXZ119-213-PAZ071-DCZ001-FLZ074-172-MI076- NYZ176-178-MAZ016-IL014-TNZ027-NJZ106-GAZ044-MD014-191700- ...Gateway Observations for Charleston International... CITY SKY/WX TMP DP RH WIND PRES REMARKS Chas Airport SUNNY 69 51 52 NW10G16 30.02F Seattle CLOUDY 41 40 96 S7 29.42R Charlotte MOSUNNY 62 45 53 NW8 30.04R Dallas DFW FOG 66 65 96 SE12 29.91R VSB 1 Dallas Love CLOUDY 68 64 87 SE15 29.93R FOG Philladelphia MOSUNNY 63 39 41 NW9 29.87F Wash National PTSUNNY 65 45 48 NW10 29.93R Baltimore MOSUNNY 65 44 46 W13 29.89S Miami MOSUNNY 81 68 64 SW8 30.07F Detroit MOSUNNY 54 35 48 W9 30.00R Newark PTSUNNY 62 37 39 W10 29.82S Laguardia PTSUNNY 59 36 42 NW14 29.80F J F K PTSUNNY 63 38 39 W13 29.82F Boston Logan CLOUDY 53 36 52 SW10 29.71S Ft. Lauderdale PTSUNNY 82 69 64 W13 30.06S Chicago O`Hare MOSUNNY 57 33 40 E3 30.05R Chicago Midway MOSUNNY 56 34 43 CALM 30.05R Houston Bush CLOUDY 72 68 87 SE15 29.97R FOG Houston Hobby LGT RAIN 69 67 93 E7 29.97R FOG Nashville CLOUDY 57 50 77 CALM 30.15R Atlanta PTSUNNY 62 52 69 N13 30.11R $$ GAZ044-118-TXZ119-213-NCZ071-DCZ001-MDZ014-506-PAZ021-071-NJZ106- NYZ176-178-MAZ106-OHZ011-021-055-MIZ076-KYZ091-ILZ014-INZ047- MNZ060-191700- ...Gateway Observations for Savannah International... CITY SKY/WX TMP DP RH WIND PRES REMARKS Savannah Arpt MOSUNNY 70 52 52 NW12 30.06F Atlanta PTSUNNY 62 52 69 N13 30.11R Charlotte MOSUNNY 62 45 53 NW8 30.04R Dallas DFW FOG 66 65 96 SE12 29.91R VSB 1 Houston Bush CLOUDY 72 68 87 SE15 29.97R FOG Wash National PTSUNNY 65 45 48 NW10 29.93R Wash Dulles MOSUNNY 62 43 49 NW16G22 29.93S Baltimore MOSUNNY 65 44 46 W13 29.89S Philadelphia MOSUNNY 63 39 41 NW9 29.87F Newark PTSUNNY 62 37 39 W10 29.82S Laguardia PTSUNNY 59 36 42 NW14 29.80F J F K PTSUNNY 63 38 39 W13 29.82F Boston CLOUDY 53 36 52 SW10 29.71S Pittsburg MOSUNNY 52 44 74 SW9 29.98F Akron MOSUNNY 54 43 66 SW10 29.99S Cleveland MOSUNNY 55 39 54 SW12 30.01R Cincinnati CLOUDY 50 46 86 W8 30.10R Columbus CLOUDY 46 46 98 W7 30.07R Detroit MOSUNNY 54 35 48 W9 30.00R Chicago O`Hare MOSUNNY 57 33 40 E3 30.05R Minneapolis PTSUNNY 46 37 71 SE7 29.95F Indianapolis CLOUDY 50 46 86 S3 30.09R $$

USA.gov is the U.S. government's official web portal to all federal, state and local government web resources and services.